FENGYUN 1C DEB, 31002

Orbit data source: Space-Track

FENGYUN 1C DEB, 31002 is space debris in SSO originally from a launch on Mon, 10 May 1999 UTC launched from the Taiyaun Space Center, China (TSC). Fengyun 1C debris stems from the Chinese weather satellite Fengyun-1C, which was intentionally destroyed by a Chinese anti-satellite missile in 2007. This event dramatically increased the amount of space debris, with thousands of trackable fragments posing hazards to satellites and human spaceflight. The Fengyun 1C debris cloud has become a focal point in discussions about space sustainability and the need for international regulations to prevent the creation of new debris.

Loading next visibility...
Identifier
31002, 1999-025BCU
Orbit
SSO
Country
Flag of CNCN / PRC
Related business
Manufacturer
Unknown
Mission
Spacecraft
Bus & Motor
Unknown
Mass
Unknown
Launch date (UTC)
1999-05-10 (27 years ago)
Launch vehicle
Unknown
Launch site
Taiyaun Space Center, China (TSC)
Object type
Payload
Rocket body
Debris
Shape & HBR
Unknown shape, 0.1 m
Radar Cross Section
Medium (>0.1 m² and <1 m²)

Expand to show TLE details & history
Last TLE update: 22 hours ago

TLE from 22 hours ago
0 FENGYUN 1C DEB
1 31002U 99025BCU 26254.82537909  .00000150  00000-0  12756-3 0  9993
2 31002  98.8809 263.6421 0098156 310.9838 223.3630 13.99436184994240
Epoch: 2026-09-11T19:48Z
TLE epoch observation values (Epoch: 2026-09-11T19:48:32.753Z)
Latitude
6.26491°
Longitude
156.64022°
Altitude
950.279 km
Speed
7.351 km/s
True Right ascension
05h 38m 28s
True Declination
6° 13' 43"
Sunlit
Object was in daylight at epoch
Visualization orbit readout
Latitude
Unknown
Longitude
Unknown
Altitude
Unknown
Speed
Unknown
Apparent Right ascension
Unknown
Apparent Declination
Unknown
Sunlit
N/A
Visualization observer readout
Local Sidereal Time
10:17:34
Azimuth
Unknown
Elevation
Unknown
Doppler factor
Unknown
Orbital elements
Apogee altitude
964.312 km
Perigee altitude
821.572 km
Semi-major axis
7,271.079 km
Eccentricity
0.00982
Inclination
98.8809°
RAAN
263.6421°
Arg. of periapsis
310.9838°
True anomaly
222.59756°
Mean anomaly
223.363°
Eccentric anomaly
222.9796°
Mean motion
3.50062 °/min
Orbital period
102.84 mins
BSTAR
0.00012756
Loading maneuver chart data...
Computing Atmospheric mass density...

Documentation

Showing up to 5 results
|